Location: Battery Park City
(40.7115°N, 74.0163°W)
Time: 08:08:26
(UTC+00:00)

Cosmos 1634 Rocket - Pass Details

Date: 08 December 2019
Orbit: 960 x 991 km, 82.9° (Epoch: 24 January)

Event Time Altitude Azimuth Distance (km) Brightness Sun altitude
Rises 21:43:53 0° 350° (N) 3,653 6.8 -3.4°
Reaches altitude 10° 21:46:23 10° 349° (N) 2,704 6.2 -3.8°
Maximum altitude 21:52:33 74° 266° (W) 1,005 4.3 -4.9°
Drops below altitude 10° 21:58:42 10° 182° (S) 2,699 6.7 -5.9°
Sets 22:01:12 0° 181° (S) 3,646 7.4 -6.3°
